Chippewa, MI

7:19 PM EST on November 22, 2017 (GMT -0500)
Chippewa County International

Weather History for KCIU - January, 2013

Change the Weather History Date:

Tuesday, January 1, 2013

  Actual Average Record
Temperature  
Mean Temperature 10 °F -  
Max Temperature 21 °F 26 °F 41 °F (2007)
Min Temperature 0 °F 9 °F -23 °F (1999)
Degree Days  
Heating Degree Days 54    
Moisture  
Dew Point 7 °F    
Average Humidity 83    
Maximum Humidity 93    
Minimum Humidity 68    
Precipitation  
Precipitation 0.00 in - - ()
Sea Level Pressure  
Sea Level Pressure 29.99 in    
Wind  
Wind Speed 6 mph (SW)    
Max Wind Speed 15 mph    
Max Gust Speed 23 mph    
Visibility 10 miles    
Events      
Averages and records for this station are not official NWS values.
T = Trace of Precipitation, MM = Missing Value Source: NWS Daily Summary

Daily Weather History Graph

Daily Weather History Graph

Search for Another Location

Airport or City:

Trip Planner

Search our weather history database for the weather conditions in past years. The results will help you decide how hot, cold, wet, or windy it might be!

Date:

Astronomy

Jan. 01, 2013 Rise Set
Actual Time 8:20 AM EST 5:02 PM EST
Civil Twilight 7:46 AM EST 5:37 PM EST
Nautical Twilight 7:08 AM EST 6:15 PM EST
Astronomical Twilight 6:31 AM EST 6:51 PM EST
Moon 9:49 PM EST (1/1) 10:17 AM EST (1/1)
Length of Visible Light 9h 51m
Length of Day
8h 41m
Waning Gibbous, 83% of the Moon is Illuminated
Jan 1
Waning Gibbous
Jan 4
Last Quarter
Jan 11
New
Jan 18
First Quarter
Jan 26
Full

Hourly Weather History & Observations

Time (EST) Temp. Windchill Dew Point Humidity Pressure Visibility Wind Dir Wind Speed Gust Speed Precip Events Conditions
12:15 AM 12.2 °F 4.3 °F 8.6 °F 85% 30.00 in 10.0 mi North 4.6 mph - N/A   Overcast
12:35 AM 12.2 °F -0.2 °F 6.8 °F 79% 30.01 in 9.0 mi North 9.2 mph - N/A   Overcast
12:55 AM 10.4 °F 0.8 °F 6.8 °F 85% 30.00 in 8.0 mi North 5.8 mph - N/A   Overcast
1:15 AM 10.4 °F -1.5 °F 5.0 °F 79% 30.00 in 10.0 mi NNE 8.1 mph - N/A   Overcast
1:35 AM 10.4 °F -0.4 °F 5.0 °F 79% 30.00 in 9.0 mi NNE 6.9 mph - N/A   Overcast
1:55 AM 8.6 °F -1.3 °F 3.2 °F 79% 30.00 in 9.0 mi NNE 5.8 mph - N/A   Overcast
2:15 AM 6.8 °F -2.0 °F 3.2 °F 85% 30.01 in 9.0 mi NE 4.6 mph - N/A   Overcast
2:35 AM 6.8 °F - 1.4 °F 79% 30.02 in 10.0 mi Calm Calm - N/A   Mostly Cloudy
2:55 AM 3.2 °F - -0.4 °F 85% 30.03 in 10.0 mi Calm Calm - N/A   Mostly Cloudy
3:15 AM 3.2 °F - -0.4 °F 85% 30.04 in 10.0 mi Calm Calm - N/A   Overcast
3:35 AM 3.2 °F - 1.4 °F 92% 30.04 in 10.0 mi Calm Calm - N/A   Overcast
3:55 AM 3.2 °F -4.2 °F -0.4 °F 85% 30.05 in 10.0 mi SE 3.5 mph - N/A   Scattered Clouds
4:15 AM 1.4 °F - -0.4 °F 92% 30.05 in 10.0 mi Calm Calm - N/A   Clear
4:35 AM -0.4 °F -8.3 °F -2.2 °F 92% 30.04 in 10.0 mi ESE 3.5 mph - N/A   Partly Cloudy
4:55 AM -0.4 °F - -2.2 °F 92% 30.05 in 7.0 mi Calm Calm - N/A   Mostly Cloudy
5:15 AM 1.4 °F - -0.4 °F 92% 30.05 in 8.0 mi Calm Calm - N/A   Overcast
5:35 AM 1.4 °F -9.9 °F -0.4 °F 92% 30.06 in 10.0 mi SE 5.8 mph - N/A   Overcast
5:55 AM 1.4 °F - -0.4 °F 92% 30.06 in 10.0 mi Calm Calm - N/A   Overcast
6:15 AM 1.4 °F -6.2 °F -0.4 °F 92% 30.06 in 10.0 mi ENE 3.5 mph - N/A   Overcast
6:35 AM 1.4 °F - -0.4 °F 92% 30.06 in 10.0 mi Calm Calm - N/A   Mostly Cloudy
6:55 AM 1.4 °F - -0.4 °F 92% 30.06 in 10.0 mi Calm Calm - N/A   Partly Cloudy
7:15 AM -0.4 °F -10.4 °F -2.2 °F 92% 30.06 in 10.0 mi South 4.6 mph - N/A   Mostly Cloudy
7:35 AM 1.4 °F - -0.4 °F 92% 30.06 in 10.0 mi Calm Calm - N/A   Overcast
7:55 AM 1.4 °F -6.2 °F -0.4 °F 92% 30.06 in 10.0 mi SSE 3.5 mph - N/A   Overcast
8:15 AM 1.4 °F -6.2 °F -0.4 °F 92% 30.05 in 10.0 mi SSE 3.5 mph - N/A   Overcast
8:35 AM 3.2 °F -4.2 °F 1.4 °F 92% 30.05 in 10.0 mi South 3.5 mph - N/A   Overcast
8:55 AM 5.0 °F -2.1 °F 1.4 °F 85% 30.05 in 10.0 mi SE 3.5 mph - N/A   Overcast
9:15 AM 5.0 °F -2.1 °F 1.4 °F 85% 30.05 in 9.0 mi SE 3.5 mph - N/A   Overcast
9:35 AM 6.8 °F -2.0 °F 1.4 °F 79% 30.04 in 6.0 mi SSE 4.6 mph - N/A   Overcast
9:55 AM 6.8 °F - 3.2 °F 85% 30.04 in 10.0 mi Calm Calm - N/A   Overcast
10:15 AM 10.4 °F 2.2 °F 6.8 °F 85% 30.04 in 10.0 mi South 4.6 mph - N/A   Overcast
10:35 AM 12.2 °F 2.9 °F 10.4 °F 92% 30.04 in 10.0 mi SSW 5.8 mph - N/A   Overcast
10:55 AM 14.0 °F 3.9 °F 12.2 °F 93% 30.04 in 10.0 mi SW 6.9 mph - N/A   Overcast
11:15 AM 15.8 °F 6.1 °F 12.2 °F 86% 30.03 in 10.0 mi SW 6.9 mph - N/A   Overcast
11:35 AM 17.6 °F 7.3 °F 15.8 °F 93% 30.03 in 10.0 mi SW 8.1 mph - N/A   Overcast
11:55 AM 19.4 °F 7.2 °F 15.8 °F 86% 30.02 in 10.0 mi WSW 11.5 mph 17.3 mph N/A   Overcast
12:15 PM 19.4 °F 7.2 °F 15.8 °F 86% 30.01 in 10.0 mi WSW 11.5 mph 17.3 mph N/A   Overcast
12:35 PM 19.4 °F 10.4 °F 15.8 °F 86% 30.00 in 10.0 mi WSW 6.9 mph - N/A   Overcast
12:55 PM 21.2 °F 10.1 °F 15.8 °F 80% 29.99 in 10.0 mi WSW 10.4 mph - N/A   Overcast
1:15 PM 21.2 °F 7.8 °F 15.8 °F 80% 29.97 in 10.0 mi West 15.0 mph 19.6 mph N/A   Overcast
1:35 PM 21.2 °F 7.8 °F 15.8 °F 80% 29.97 in 10.0 mi WSW 15.0 mph 19.6 mph N/A   Overcast
1:55 PM 21.2 °F 8.9 °F 15.8 °F 80% 29.96 in 10.0 mi West 12.7 mph 18.4 mph N/A   Overcast
2:15 PM 21.2 °F 8.3 °F 15.8 °F 80% 29.95 in 10.0 mi West 13.8 mph 19.6 mph N/A   Overcast
2:35 PM 21.2 °F 7.8 °F 12.2 °F 68% 29.95 in 10.0 mi West 15.0 mph 23.0 mph N/A   Overcast
2:55 PM 21.2 °F 8.9 °F 12.2 °F 68% 29.95 in 10.0 mi West 12.7 mph - N/A   Overcast
3:15 PM 21.2 °F 9.5 °F 12.2 °F 68% 29.94 in 10.0 mi WSW 11.5 mph 16.1 mph N/A   Overcast
3:35 PM 21.2 °F 8.9 °F 14.0 °F 74% 29.95 in 10.0 mi West 12.7 mph 16.1 mph N/A   Overcast
3:55 PM 19.4 °F 6.0 °F 12.2 °F 74% 29.95 in 10.0 mi WSW 13.8 mph 20.7 mph N/A   Overcast
4:15 PM 19.4 °F 8.6 °F 12.2 °F 74% 29.95 in 10.0 mi WSW 9.2 mph - N/A   Overcast
4:35 PM 19.4 °F 6.6 °F 12.2 °F 74% 29.95 in 10.0 mi West 12.7 mph - N/A   Mostly Cloudy
4:55 PM 17.6 °F 5.7 °F 10.4 °F 73% 29.95 in 10.0 mi WSW 10.4 mph - N/A   Mostly Cloudy
5:15 PM 17.6 °F 7.3 °F 10.4 °F 73% 29.95 in 10.0 mi WSW 8.1 mph - N/A   Overcast
5:35 PM 17.6 °F 8.2 °F 10.4 °F 73% 29.96 in 10.0 mi West 6.9 mph - N/A   Overcast
5:55 PM 15.8 °F 8.6 °F 10.4 °F 79% 29.96 in 10.0 mi West 4.6 mph - N/A   Mostly Cloudy
6:15 PM 15.8 °F 6.1 °F 10.4 °F 79% 29.96 in 10.0 mi WSW 6.9 mph - N/A   Mostly Cloudy
6:35 PM 15.8 °F 6.1 °F 10.4 °F 79% 29.95 in 10.0 mi SW 6.9 mph - N/A   Overcast
6:55 PM 15.8 °F 6.1 °F 10.4 °F 79% 29.95 in 10.0 mi WSW 6.9 mph - N/A   Mostly Cloudy
7:15 PM 14.0 °F 3.9 °F 8.6 °F 79% 29.95 in 10.0 mi WSW 6.9 mph - N/A   Partly Cloudy
7:35 PM 14.0 °F 2.9 °F 8.6 °F 79% 29.95 in 10.0 mi WSW 8.1 mph - N/A   Mostly Cloudy
7:55 PM 14.0 °F 2.0 °F 8.6 °F 79% 29.94 in 10.0 mi WSW 9.2 mph - N/A   Mostly Cloudy
8:15 PM 12.2 °F -1.0 °F 8.6 °F 85% 29.94 in 10.0 mi WSW 10.4 mph - N/A   Partly Cloudy
8:35 PM 12.2 °F -1.0 °F 8.6 °F 85% 29.93 in 10.0 mi WSW 10.4 mph - N/A   Clear
8:55 PM 12.2 °F -1.0 °F 8.6 °F 85% 29.93 in 10.0 mi WSW 10.4 mph - N/A   Scattered Clouds
9:15 PM 12.2 °F -1.8 °F 8.6 °F 85% 29.92 in 10.0 mi WSW 11.5 mph - N/A   Partly Cloudy
9:35 PM 12.2 °F -2.5 °F 8.6 °F 85% 29.92 in 10.0 mi WSW 12.7 mph 16.1 mph N/A   Scattered Clouds
9:55 PM 14.0 °F 0.5 °F 8.6 °F 79% 29.91 in 10.0 mi WSW 11.5 mph 19.6 mph N/A   Overcast
10:35 PM 14.0 °F 0.5 °F 6.8 °F 73% 29.90 in 10.0 mi WSW 11.5 mph 17.3 mph N/A   Clear
10:55 PM 14.0 °F -0.2 °F 6.8 °F 73% 29.90 in 10.0 mi WSW 12.7 mph 18.4 mph N/A   Clear
11:15 PM 14.0 °F 0.5 °F 6.8 °F 73% 29.91 in 10.0 mi WSW 11.5 mph - N/A   Clear
11:55 PM 12.2 °F 2.9 °F 5.0 °F 73% 29.91 in 10.0 mi SW 5.8 mph - N/A   Clear